Temperature
12 12 11 11 10 10 9 9 9 9 8 8 8 9 9 9 9 9 10 10 10 10 11 11 11 11 12 12 13 13 13 13 14 15 16 16 16 16 16 16 16 16 16
12 11 11 10 10 10 9 9 9 8 8 8 8 8 8 8 8 9 9 9 9 9 10 10 10 11 11 11 12 12 13 13 13 14 15 16 16 16 16 16 16 16 16
12 11 11 10 10 10 9 9 9 8 8 8 8 8 8 8 8 8 8 8 9 9 9 9 10 10 10 11 11 11 12 12 13 13 14 15 15 15 15 15 15 15 15
12 11 11 10 10 9 9 9 8 8 8 8 8 8 8 8 7 7 8 8 8 8 8 9 9 9 10 10 11 11 11 12 12 13 13 14 14 15 15 15 15 14 15
11 11 11 10 10 9 9 9 8 8 8 8 7 7 7 7 7 7 7 7 7 7 8 8 8 9 9 10 10 10 11 11 11 12 12 13 14 14 14 14 14 14 14
11 11 10 10 9 9 9 8 8 8 7 7 7 7 7 7 7 7 6 6 6 7 7 7 8 8 8 9 9 10 10 10 11 11 12 12 13 14 14 14 14 13 13
11 10 10 9 9 9 8 8 7 7 7 7 7 7 7 7 7 7 7 6 6 6 7 7 7 7 8 8 9 9 10 10 10 11 11 12 13 13 14 13 14 14 14
10 10 9 9 8 8 8 8 7 7 7 7 7 7 7 7 7 7 7 6 6 6 6 6 6 7 7 7 8 9 9 10 10 11 11 11 12 12 13 14 14 13 13
10 9 9 8 8 8 7 7 7 7 7 7 7 7 7 7 7 7 7 6 6 6 6 6 6 6 7 7 7 8 9 9 10 10 10 11 11 12 12 12 12 12 12
9 9 8 8 7 7 7 7 7 7 7 7 8 8 7 7 7 7 6 6 6 6 6 6 6 6 6 7 7 8 8 9 10 10 10 10 11 11 12 12 13 13 12
9 8 8 7 7 7 7 7 7 7 7 7 7 8 7 7 7 6 6 6 6 6 6 6 6 6 6 6 7 7 8 9 9 9 10 10 10 11 11 12 12 13 13
8 8 8 7 7 7 7 7 7 7 7 7 7 7 7 7 6 6 6 6 6 6 6 6 6 6 6 6 7 8 8 8 9 9 9 9 10 10 11 11 12 12 13
8 8 7 7 7 7 7 7 7 7 7 7 7 7 7 6 6 6 6 6 6 6 6 6 6 6 6 6 7 7 8 8 8 9 9 9 10 10 11 11 11 11 12
8 7 7 7 7 7 7 7 7 7 7 7 7 7 7 6 6 6 6 6 6 6 6 6 6 6 6 7 7 7 8 8 9 9 9 9 9 10 10 10 11 11 11
8 7 7 7 7 7 7 7 8 8 8 7 7 7 7 6 6 6 6 6 6 6 6 6 6 6 6 7 7 7 8 8 8 9 9 9 9 9 10 10 10 11 11
8 7 7 7 7 7 7 8 9 8 8 8 8 7 7 6 6 6 6 6 6 6 6 6 6 6 6 7 7 7 8 8 8 9 9 9 9 9 9 10 10 10 11
7 7 7 7 7 7 7 7 8 9 9 8 8 8 7 7 6 6 6 6 6 6 6 6 7 7 7 7 8 8 8 8 9 9 9 9 9 9 9 10 10 10 10
7 7 7 7 7 7 7 8 8 8 8 9 8 8 8 7 7 6 6 6 6 6 6 7 7 7 8 8 8 8 9 9 9 9 9 9 9 9 9 9 10 10 10
7 7 7 7 7 7 7 8 8 8 8 8 8 8 8 7 7 7 6 6 6 7 7 7 7 8 8 8 9 9 9 9 9 9 9 9 9 9 9 9 9 10 10
8 7 7 7 7 7 7 8 8 8 8 8 8 8 8 8 8 7 7 7 7 7 7 7 8 8 8 8 9 9 9 9 9 10 10 10 9 9 9 9 9 9 9
8 7 7 7 7 7 7 8 8 8 8 8 8 8 8 8 8 8 7 7 7 7 7 8 8 8 8 9 9 9 9 9 9 10 10 10 10 9 9 9 9 9 9
8 7 7 7 7 7 7 8 8 8 8 8 8 8 8 8 8 8 8 8 8 8 8 8 8 8 8 9 9 9 9 9 9 10 10 10 10 9 9 9 9 9 9
8 7 7 7 7 7 7 8 8 8 8 8 8 8 8 8 8 8 8 8 8 8 8 8 8 8 8 8 9 9 9 9 9 9 10 10 10 9 9 9 9 9 9
8 7 7 7 7 7 7 8 8 8 8 8 8 8 8 8 8 8 8 8 8 8 8 8 8 8 8 8 9 9 9 9 9 9 9 9 9 9 9 9 9 9 9
7 7 7 6 6 7 7 7 8 8 8 8 8 8 8 8 8 8 8 8 8 8 8 8 8 8 8 8 9 9 9 9 9 9 9 9 9 9 9 9 9 9 9
7 6 6 6 6 6 7 7 8 8 8 8 8 8 8 8 8 8 7 7 7 7 7 8 8 8 8 8 8 9 9 9 9 9 9 9 9 9 9 9 9 9 9
Wind_Speed
4 4 4 4 5 5 5 6 6 6 6 7 7 7 7 8 7 6 6 7 7 7 6 7 8 7 6 5 4 4 4 4 5 4 2 2 4 8 7 8 10 9 9
5 5 5 6 6 6 7 8 7 8 8 8 8 8 8 8 8 7 8 8 8 8 8 7 8 7 7 6 5 5 5 5 5 5 3 3 3 9 10 9 7 8 8
5 5 5 6 7 7 8 8 8 8 8 8 8 8 9 9 9 9 9 9 9 9 9 8 8 8 8 7 7 6 5 6 5 5 4 3 2 7 9 8 8 6 6
5 5 6 7 8 8 8 8 8 8 8 9 9 9 9 10 10 10 10 10 10 10 9 9 9 8 8 9 8 8 6 6 5 5 5 3 4 6 9 9 7 4 4
5 6 7 8 8 7 7 8 8 8 9 8 9 9 9 9 10 10 10 11 10 10 9 9 9 12 13 10 8 7 7 6 5 5 5 4 5 9 9 6 8 7 4
6 7 7 7 7 7 8 8 8 9 9 9 9 10 10 10 13 15 13 10 9 10 10 10 10 12 14 15 15 14 12 9 8 7 7 7 8 8 7 9 9 8 5
6 7 7 7 7 8 8 9 9 9 9 10 10 10 11 13 17 18 20 13 11 11 11 10 13 13 12 9 11 15 15 16 14 10 9 8 8 9 11 11 11 9 5
6 7 6 6 7 8 9 9 9 9 9 10 11 11 11 14 17 18 20 14 11 12 12 12 12 12 12 9 8 8 9 10 12 10 9 9 8 9 13 13 11 8 6
6 7 7 7 8 9 10 10 10 10 10 10 11 11 12 13 16 17 17 9 10 12 12 12 13 13 15 15 10 9 8 8 10 11 10 10 10 12 12 11 12 12 9
7 7 7 7 8 10 10 10 9 9 11 11 12 11 12 12 15 16 15 7 9 10 9 11 16 15 15 15 11 10 10 8 8 7 6 6 7 10 16 15 15 14 10
7 7 7 8 9 10 9 9 10 11 11 11 12 11 10 11 12 14 14 7 8 8 8 8 8 14 15 15 13 10 11 9 8 9 8 6 6 7 10 11 11 14 11
6 7 8 9 9 10 10 10 10 10 11 11 10 10 8 8 9 10 12 11 10 8 8 7 8 12 13 13 11 11 13 10 7 7 7 7 7 7 8 10 10 8 6
6 8 9 9 9 9 9 11 10 9 9 9 8 8 7 6 7 10 10 10 10 7 7 9 9 11 10 9 11 12 10 7 7 7 9 8 7 7 7 8 8 8 7
7 8 8 9 10 10 9 8 8 9 9 8 7 7 6 6 5 5 5 5 5 5 4 5 7 7 6 5 6 6 6 7 8 8 8 7 6 6 7 7 8 10 8
7 8 8 9 9 10 10 9 10 10 10 10 8 6 6 6 6 7 6 4 3 3 1 1 1 2 3 3 3 4 4 5 6 6 6 6 7 7 6 7 8 9 7
7 7 7 8 8 9 10 12 14 13 15 14 12 8 6 8 8 8 8 8 6 3 1 1 2 3 3 4 4 4 4 5 6 6 6 7 7 7 7 7 9 9 10
7 7 7 8 9 9 10 10 12 14 12 10 11 10 10 8 8 8 7 7 6 3 1 2 2 3 4 5 5 5 6 6 5 6 6 7 7 7 8 9 9 10 9
7 9 9 7 8 9 10 10 9 10 10 7 6 9 9 9 8 7 5 4 3 2 2 2 3 3 3 4 5 5 5 5 5 6 6 7 7 8 8 9 9 10 10
7 6 7 7 8 9 9 9 9 9 8 7 5 4 6 6 7 7 4 3 4 4 3 4 4 3 3 3 4 4 5 5 6 6 6 7 7 8 8 9 9 13 11
6 10 10 8 8 9 9 9 9 8 8 7 6 5 2 3 3 4 5 5 5 5 5 5 5 5 4 4 4 4 4 5 6 6 6 7 7 8 9 10 10 11 11
5 7 12 9 8 8 9 9 8 8 7 6 6 5 5 5 6 6 6 6 7 7 6 6 5 5 5 4 4 5 5 5 5 6 7 7 8 8 8 9 10 11 11
5 5 6 7 7 8 9 9 8 8 7 7 6 5 6 5 5 6 6 6 7 7 7 6 6 6 6 6 6 6 6 6 6 6 7 7 8 8 9 9 10 10 11
5 6 6 6 7 9 10 8 8 8 7 7 6 5 4 4 5 5 6 6 6 6 6 6 6 6 6 6 6 7 7 7 7 8 8 8 8 8 9 9 11 12 12
5 5 5 6 7 7 8 9 8 8 8 7 6 5 5 4 5 5 5 5 5 5 5 6 6 8 9 7 6 6 7 7 8 8 10 9 9 8 9 10 11 13 13
4 3 4 5 6 8 8 9 8 8 8 7 6 5 5 5 5 5 4 4 4 4 5 5 5 6 8 9 7 7 9 11 10 8 8 8 9 10 10 10 10 11 11
2 3 4 5 6 7 8 9 9 9 8 7 6 6 5 5 5 5 5 4 3 3 3 3 4 5 6 6 7 9 10 10 10 10 8 8 9 9 10 9 11 11 12
Wind_Direction
234 242 253 255 258 262 264 267 265 265 272 276 279 284 288 290 291 292 291 293 289 287 283 270 261 258 255 251 234 222 221 208 237 256 241 190 145 143 128 117 116 111 113
238 243 249 254 259 260 260 261 258 258 259 258 260 265 270 275 275 277 281 287 280 279 277 272 266 264 254 246 237 229 225 218 222 245 238 195 157 155 143 133 121 113 108
242 252 264 268 266 263 262 261 259 257 258 257 256 257 260 262 263 264 264 269 268 266 266 264 261 257 255 247 237 232 228 230 217 229 236 209 152 152 141 127 118 111 107
251 260 268 270 267 267 269 270 268 264 261 261 257 254 254 256 256 257 258 261 263 264 262 259 255 247 245 244 239 232 225 225 221 228 234 211 169 159 148 145 138 124 116
259 266 267 271 273 274 277 277 276 272 273 264 261 260 256 256 258 253 249 256 257 261 262 258 255 257 253 244 237 224 217 217 215 220 229 209 178 172 165 156 148 136 108
262 268 273 281 283 283 283 284 283 279 275 270 265 264 263 268 265 259 253 248 245 248 255 257 261 266 263 255 246 231 213 210 211 212 222 214 200 181 165 157 150 151 152
268 273 280 285 288 288 293 295 288 285 280 276 271 267 266 265 262 260 260 253 243 243 244 248 261 262 258 247 246 240 227 217 206 202 214 218 203 187 169 166 168 161 151
279 283 286 289 292 293 292 290 287 283 282 279 276 271 269 270 265 259 258 256 247 243 240 237 239 246 249 240 238 237 225 217 211 205 209 215 211 194 180 173 162 134 106
288 289 289 293 297 298 298 296 293 291 289 282 277 274 271 273 269 265 260 254 248 246 243 238 233 235 237 230 224 226 223 221 214 202 201 210 206 193 174 156 154 152 151
288 289 289 292 296 298 297 296 294 291 288 286 283 278 272 273 272 269 263 250 249 249 244 240 236 230 228 221 215 211 212 207 189 185 187 195 196 187 176 174 168 166 157
290 293 295 296 296 296 296 296 296 295 293 289 287 285 280 275 278 275 271 249 243 245 241 237 233 225 222 218 209 206 207 191 184 183 181 187 190 187 184 181 177 172 166
299 303 302 300 304 311 303 302 298 295 295 293 291 293 288 284 284 285 282 266 245 237 240 236 230 222 221 216 208 206 199 183 176 178 184 194 198 196 189 182 178 173 157
311 309 305 305 304 301 300 301 303 298 296 294 291 291 293 293 297 303 302 293 269 238 237 232 226 219 212 208 204 190 179 177 178 180 192 199 198 191 179 172 161 138 108
311 308 307 310 309 307 303 297 297 297 297 292 288 287 288 292 299 313 313 308 293 254 242 235 221 200 182 173 171 174 176 182 179 186 192 189 178 177 180 172 166 155 138
307 305 307 307 306 309 306 298 293 285 278 273 276 269 273 284 281 290 301 303 296 268 224 184 160 153 150 151 147 154 169 173 178 178 179 176 175 175 174 167 160 153 151
308 309 309 310 310 309 310 311 300 288 284 267 250 243 250 254 279 290 298 303 304 280 211 184 176 169 171 176 174 172 180 185 184 175 174 174 174 174 170 165 161 162 159
296 302 307 307 309 310 310 309 312 314 307 282 255 247 241 255 268 276 293 304 301 294 237 218 199 190 189 184 187 189 189 190 180 173 173 172 169 167 167 168 169 165 161
294 302 308 303 305 307 306 303 300 302 309 308 277 249 245 246 255 263 280 308 297 280 245 236 225 215 201 192 192 194 191 179 176 176 171 169 167 166 168 170 173 169 163
293 295 302 303 305 305 304 302 301 301 298 297 296 274 249 245 249 253 243 239 253 259 253 251 241 229 215 205 201 196 190 184 180 174 174 172 169 166 170 173 173 166 162
287 305 315 309 309 310 309 306 307 306 302 299 295 277 221 200 236 235 224 229 238 247 249 247 245 237 226 214 204 191 185 181 176 175 175 174 171 170 172 173 173 173 174
286 303 314 313 309 309 310 308 306 304 301 298 291 278 228 222 242 242 235 231 232 236 238 239 238 236 227 218 206 195 188 186 182 176 172 171 170 170 171 171 172 173 174
282 289 298 305 310 313 315 311 310 306 303 302 297 295 263 245 254 255 248 242 234 231 229 227 231 230 222 213 203 195 191 189 185 177 171 169 169 169 168 168 169 172 173
285 294 302 312 316 318 322 318 317 314 308 306 304 300 289 272 272 270 261 256 245 234 228 224 226 230 227 215 203 194 194 195 189 177 169 166 166 168 169 171 173 174 175
289 296 311 325 327 325 324 322 320 318 316 313 312 312 307 296 290 288 280 272 264 251 237 225 223 223 219 214 209 203 200 193 181 177 169 166 167 169 170 174 176 178 178
294 313 333 337 333 331 328 325 324 323 321 322 320 315 310 305 302 306 306 298 286 270 257 235 223 221 217 209 199 193 191 184 176 167 163 164 167 170 172 174 176 175 174
326 354 356 345 337 335 333 329 327 326 323 324 322 316 312 310 307 304 305 305 297 285 273 250 222 209 201 196 184 167 164 167 165 162 161 163 167 172 173 176 176 177 173
Height
1497 1494 1491 1488 1485 1482 1479 1476 1474 1472 1470 1468 1465 1463 1462 1460 1459 1457 1456 1455 1455 1455 1455 1456 1457 1458 1459 1460 1461 1462 1463 1465 1466 1467 1468 1470 1473 1475 1478 1481 1483 1486 1489
1493 1490 1487 1484 1480 1477 1475 1472 1470 1467 1465 1463 1461 1459 1457 1455 1453 1452 1450 1449 1448 1448 1448 1449 1450 1451 1452 1454 1455 1456 1458 1460 1461 1462 1464 1466 1468 1471 1474 1477 1480 1482 1485
1488 1485 1482 1479 1476 1473 1470 1467 1465 1462 1460 1458 1456 1453 1451 1450 1448 1446 1444 1443 1441 1441 1441 1441 1442 1444 1445 1447 1449 1451 1452 1454 1456 1457 1459 1462 1464 1467 1470 1473 1476 1479 1481
1484 1481 1478 1474 1471 1468 1465 1462 1459 1457 1454 1452 1449 1447 1445 1443 1441 1439 1437 1436 1435 1434 1433 1433 1434 1436 1438 1440 1442 1444 1446 1448 1450 1452 1454 1457 1460 1462 1465 1468 1472 1475 1477
1479 1476 1473 1469 1466 1463 1459 1456 1453 1450 1447 1445 1442 1440 1438 1436 1433 1431 1430 1428 1427 1426 1426 1426 1426 1427 1429 1432 1435 1437 1440 1442 1444 1446 1448 1452 1455 1457 1460 1464 1468 1471 1474
1475 1471 1468 1464 1461 1457 1453 1450 1446 1443 1440 1437 1435 1432 1430 1428 1426 1424 1422 1421 1419 1419 1418 1418 1418 1419 1421 1423 1427 1430 1433 1435 1438 1440 1442 1445 1449 1452 1455 1459 1463 1467 1471
1470 1466 1463 1459 1455 1451 1447 1443 1439 1436 1432 1429 1427 1424 1422 1420 1418 1416 1414 1412 1411 1409 1409 1409 1409 1410 1412 1415 1418 1422 1425 1428 1431 1434 1436 1439 1443 1447 1450 1454 1458 1463 1467
1465 1461 1458 1454 1449 1445 1441 1436 1432 1429 1425 1422 1419 1417 1414 1412 1410 1407 1405 1403 1401 1400 1399 1399 1400 1401 1403 1406 1410 1413 1416 1420 1424 1427 1430 1434 1438 1442 1445 1450 1454 1460 1465
1460 1456 1452 1448 1443 1439 1434 1430 1426 1422 1419 1415 1412 1409 1407 1404 1401 1398 1396 1393 1391 1390 1389 1389 1390 1391 1394 1398 1401 1404 1408 1412 1417 1421 1424 1427 1431 1435 1440 1444 1449 1455 1460
1454 1450 1446 1442 1437 1433 1428 1424 1420 1416 1413 1409 1406 1403 1400 1396 1393 1390 1387 1384 1381 1380 1380 1380 1381 1383 1385 1389 1392 1396 1400 1405 1410 1414 1418 1421 1424 1429 1433 1438 1443 1449 1454
1449 1445 1441 1437 1432 1427 1423 1419 1415 1411 1407 1404 1400 1397 1393 1389 1385 1382 1379 1376 1374 1372 1371 1371 1373 1375 1378 1380 1384 1388 1393 1399 1404 1408 1412 1415 1419 1423 1427 1432 1438 1444 1448
1443 1439 1435 1431 1427 1422 1418 1414 1410 1407 1402 1399 1395 1391 1387 1383 1379 1375 1372 1369 1367 1365 1365 1365 1366 1368 1371 1373 1377 1382 1388 1393 1398 1402 1405 1409 1413 1417 1422 1427 1433 1439 1445
1438 1434 1430 1425 1421 1418 1414 1409 1406 1402 1398 1394 1390 1386 1382 1378 1374 1371 1368 1365 1362 1361 1360 1360 1361 1363 1365 1368 1372 1377 1382 1387 1392 1396 1400 1404 1409 1413 1418 1423 1429 1435 1441
1433 1429 1425 1421 1417 1413 1410 1406 1402 1398 1394 1390 1386 1381 1377 1374 1370 1367 1365 1362 1360 1358 1357 1357 1358 1359 1362 1365 1369 1373 1378 1383 1388 1392 1396 1401 1405 1409 1413 1418 1423 1429 1435
1429 1425 1421 1417 1413 1409 1405 1402 1398 1394 1391 1386 1382 1378 1374 1370 1367 1365 1363 1360 1359 1357 1356 1356 1357 1359 1361 1363 1367 1371 1376 1380 1385 1389 1393 1397 1401 1405 1409 1414 1419 1424 1430
1424 1420 1417 1414 1410 1406 1402 1397 1394 1391 1387 1383 1379 1375 1371 1368 1364 1362 1361 1360 1358 1358 1357 1357 1357 1359 1361 1364 1367 1371 1375 1379 1382 1387 1391 1394 1398 1402 1406 1411 1415 1420 1426
1421 1417 1413 1410 1407 1403 1399 1395 1390 1387 1383 1380 1376 1372 1369 1366 1363 1361 1359 1359 1358 1358 1357 1357 1358 1360 1362 1364 1368 1371 1375 1378 1382 1386 1389 1393 1396 1400 1404 1408 1412 1417 1423
1418 1414 1411 1407 1404 1400 1396 1392 1388 1384 1380 1377 1374 1370 1367 1364 1362 1360 1358 1358 1357 1357 1358 1358 1359 1361 1363 1365 1368 1371 1374 1378 1381 1385 1388 1391 1394 1398 1401 1405 1410 1414 1420
1415 1411 1408 1404 1401 1397 1393 1390 1386 1382 1378 1375 1371 1369 1366 1363 1361 1359 1357 1357 1356 1357 1357 1358 1359 1361 1363 1365 1367 1370 1373 1376 1379 1382 1385 1389 1392 1395 1399 1403 1408 1412 1417
1412 1409 1405 1401 1398 1394 1390 1387 1383 1380 1376 1373 1369 1367 1364 1362 1359 1358 1356 1355 1355 1355 1355 1356 1358 1360 1362 1364 1366 1369 1371 1374 1377 1380 1383 1386 1390 1393 1397 1401 1404 1409 1413
1409 1406 1402 1399 1395 1392 1388 1385 1381 1377 1374 1371 1367 1365 1362 1360 1358 1356 1355 1354 1353 1353 1353 1354 1356 1357 1360 1362 1364 1366 1369 1371 1374 1377 1380 1383 1387 1390 1394 1398 1402 1406 1411
1406 1402 1399 1396 1393 1389 1386 1383 1379 1376 1372 1369 1365 1363 1360 1358 1355 1354 1352 1351 1351 1350 1351 1352 1353 1355 1357 1359 1361 1363 1366 1368 1371 1374 1377 1381 1384 1388 1391 1394 1399 1403 1407
1403 1399 1396 1393 1390 1387 1384 1381 1378 1374 1371 1367 1364 1361 1358 1355 1353 1351 1349 1348 1347 1347 1347 1348 1349 1351 1353 1355 1358 1360 1362 1365 1368 1371 1375 1378 1381 1384 1387 1391 1395 1400 1404
1399 1396 1393 1390 1388 1385 1382 1379 1376 1373 1370 1366 1363 1360 1356 1353 1351 1348 1346 1344 1343 1343 1343 1344 1345 1347 1349 1351 1354 1356 1359 1361 1365 1368 1371 1375 1378 1381 1384 1388 1392 1396 1401
1396 1393 1391 1388 1385 1382 1380 1377 1374 1372 1368 1365 1362 1359 1355 1352 1348 1346 1343 1340 1339 1338 1338 1339 1340 1342 1345 1347 1350 1353 1356 1358 1362 1365 1368 1371 1374 1377 1381 1385 1389 1394 1398
1393 1391 1388 1385 1382 1380 1378 1375 1373 1370 1367 1365 1362 1358 1355 1351 1347 1344 1341 1338 1336 1334 1334 1334 1335 1337 1340 1343 1346 1349 1352 1355 1359 1362 1365 1368 1371 1374 1377 1381 1386 1390 1395